User: anonymous   Login
Location: Theydon Bois
(51.6750°N, 0.1050°E)
Time: 04:49:43
(UTC+01:00)
Language:

SJ-6B - Orbit

View from above orbital plane
View from above orbital plane
View from above satellite
View from above satellite

Ground track
Ground track

The orbit data is extracted from the following two-line orbital elements,

1 28415U 04035C   17291.71649734  .00000442  00000-0  33593-4 0  9990
2 28415  97.7361 321.4526 0053490  62.7706 297.8956 15.06320184717176
Epoch (UTC): 18 October 2017 17:11:45
Eccentricity: 0.0053490
inclination: 97.7361°
perigee height: 510 km
apogee height: 584 km
right ascension of ascending node: 321.4526°
argument of perigee: 62.7706°
revolutions per day: 15.06320184
mean anomaly at epoch: 297.8956°
orbit number at epoch: 71717

The dashed part of the orbit path shows where the satellite is in the earth's shadow,  

DLR